Location: Luz Observatory
(34.5000°N, 117.2833°W)
Time: 07:23:03
(UTC-07:00)

Okean 3 Rocket - Visible Passes

Search period start: 28 July 2014 00:00
Search period end: 07 August 2014 00:00
Orbit: 616 x 647 km, 82.5° (Epoch: 27 July)

Date Brightness Start Highest point End Pass type
(mag) Time Alt. Az. Time Alt. Az. Time Alt. Az.
28 Jul 6.1 00:17:59 10° N 00:19:14 19° N 00:19:14 19° N visible
29 Jul 6.3 00:39:20 10° NNW 00:40:24 17° NNW 00:40:24 17° NNW visible
29 Jul 6.3 23:23:30 10° NNE 23:24:10 13° NNE 23:24:10 13° NNE visible
30 Jul 6.5 01:01:12 10° NNW 01:01:35 12° NW 01:01:35 12° NW visible
30 Jul 6.1 23:44:07 10° N 23:45:21 18° NNE 23:45:21 18° NNE visible
01 Aug 6.2 00:05:18 10° N 00:06:33 19° N 00:06:33 19° N visible
01 Aug 6.3 22:50:04 10° NE 22:50:21 11° NE 22:50:21 11° NE visible
02 Aug 6.4 00:26:57 10° NNW 00:27:45 15° NNW 00:27:45 15° NNW visible
02 Aug 6.0 23:10:19 10° NNE 23:11:34 17° NNE 23:11:34 17° NNE visible
03 Aug 5.9 23:31:19 10° N 23:32:48 21° N 23:32:48 21° N visible
04 Aug 6.2 23:52:46 10° NNW 23:54:02 18° NNW 23:54:02 18° NNW visible
05 Aug 5.9 22:36:37 10° NNE 22:37:53 16° NNE 22:37:53 16° NNE visible
06 Aug 6.6 00:14:48 10° NW 00:15:18 12° NW 00:15:18 12° NW visible
06 Aug 5.7 22:57:24 10° N 22:59:09 23° NNE 22:59:09 23° NNE visible
